This is the latest recevied weather packets stored in our database for station/object KD2SIG. If no packets are shown the sender has not sent any weather packets the latest 10 day(s).
| Time | Temp. | Humidity | Pressure | Rain* | Wind** | Luminosity | Snow |
|---|---|---|---|---|---|---|---|
| 1777765070 | 5° C | 81% | 1014 hPa | 0 mm | - | 14 W/m² | - |
| 1777764767 | 5° C | 82% | 1014.2 hPa | 0 mm | - | 17 W/m² | - |
| 1777764463 | 5° C | 81% | 1014 hPa | 0 mm | - | 20 W/m² | - |
| 1777764160 | 5° C | 81% | 1014.2 hPa | 0 mm | - | 23 W/m² | - |
| 1777763857 | 5° C | 80% | 1014.2 hPa | 0 mm | - | 23 W/m² | - |
| 1777763554 | 5° C | 82% | 1014.2 hPa | 0 mm | - | 23 W/m² | - |
| 1777763253 | 5° C | 81% | 1014.3 hPa | 0 mm | - | 27 W/m² | - |
| 1777762951 | 5° C | 80% | 1014.3 hPa | 0 mm | - | 21 W/m² | - |
| 1777762647 | 5° C | 79% | 1014.3 hPa | 0 mm | - | 26 W/m² | - |
| 1777762344 | 5.56° C | 78% | 1014.6 hPa | 0 mm | - | 24 W/m² | - |
| 1777762040 | 5.56° C | 76% | 1014.3 hPa | 0 mm | - | 28 W/m² | - |
| 1777761737 | 5.56° C | 77% | 1014.2 hPa | 0 mm | - | 30 W/m² | - |
| 1777761434 | 5.56° C | 77% | 1014.3 hPa | 0 mm | - | 28 W/m² | - |
| 1777761132 | 5.56° C | 75% | 1014.2 hPa | 0 mm | - | 29 W/m² | - |
| 1777760830 | 6.11° C | 74% | 1014 hPa | 0 mm | - | 36 W/m² | - |
| 1777760526 | 5.56° C | 74% | 1014 hPa | 0 mm | - | 48 W/m² | - |
| 1777760222 | 5.56° C | 73% | 1014 hPa | 0 mm | - | 40 W/m² | - |
| 1777759919 | 5.56° C | 74% | 1014.1 hPa | 0 mm | - | 29 W/m² | - |
| 1777759615 | 5.56° C | 73% | 1014.1 hPa | 0 mm | - | 38 W/m² | - |
| 1777759312 | 6.11° C | 73% | 1014.3 hPa | 0 mm | - | 57 W/m² | - |
| 1777759009 | 6.11° C | 74% | 1014.2 hPa | 0 mm | - | 64 W/m² | - |
| 1777758706 | 6.11° C | 74% | 1014 hPa | 0 mm | - | 77 W/m² | - |
| 1777758403 | 6.11° C | 74% | 1014.3 hPa | 0 mm | - | 101 W/m² | - |
| 1777758100 | 6.11° C | 73% | 1014.2 hPa | 0 mm | - | 118 W/m² | - |
| 1777757797 | 6.11° C | 74% | 1014.3 hPa | 0 mm | - | 123 W/m² | - |
* Rain latest hour (hover to see other rain measurements)
** Current wind speed in m/s (hover to see current wind gust speed)